Location: Zlin
(49.2330°N, 17.6670°E)
Time: 09:21:36
(UTC+01:00)

X-37B - Visible Passes

Search period start: 04 March 2024 00:00
Search period end: 14 March 2024 00:00
Orbit: 277 x 277 km, 45.0° (Epoch: 01 November)

Date Brightness Start Highest point End Pass type
(mag) Time Alt. Az. Time Alt. Az. Time Alt. Az.
09 Mar 2.4 18:35:50 10° S 18:36:43 11° SSE 18:37:35 10° SE visible
10 Mar 2.1 18:35:36 10° SSW 18:37:14 16° SSE 18:38:28 12° SE visible
11 Mar 1.7 18:35:49 10° SW 18:37:46 21° SSE 18:39:16 13° ESE visible
12 Mar 1.4 18:36:13 10° SW 18:38:20 25° S 18:40:01 13° ESE visible
12 Mar 3.4 20:10:03 10° WSW 20:10:04 10° WSW 20:10:04 10° WSW visible
13 Mar 1.3 18:36:43 10° WSW 18:38:55 29° S 18:40:44 13° ESE visible
13 Mar 3.4 20:10:45 10° WSW 20:10:47 10° WSW 20:10:47 10° WSW visible
